F1ZVN-13 Weather Reports


time (UTC)temp
C
wind
direction
speed
KPH
gust
KPH
rain 1hr
cm
rain 24hr
cm
rain mn
cm
humidity
%
barometer
mb
20260507150748 6 180 0.0 0.0 0.00 0.00 0.00 74 1003.4
20260507150547 6 180 0.0 0.0 0.00 0.00 0.00 73 1003.4
20260507150346 6 180 0.0 0.0 0.00 0.00 0.00 73 1003.4
20260507150143 6 180 0.0 0.0 0.00 0.00 0.00 73 1003.4
20260507145947 6 180 0.0 0.0 0.00 0.00 0.00 75 1003.4
20260507145739 6 180 0.0 0.0 0.00 0.00 0.00 75 1003.4
20260507145540 6 180 0.0 0.0 0.00 0.00 0.00 75 1003.3
20260507145142 6 180 0.0 0.0 0.00 0.00 0.00 75 1003.3
20260507144946 6 180 0.0 0.0 0.00 0.00 0.00 75 1003.3
20260507144738 6 180 0.0 0.0 0.00 0.00 0.00 74 1003.4
20260507144545 6 180 0.0 0.0 0.00 0.00 0.00 73 1003.4
20260507143932 6 180 0.0 0.0 0.00 0.00 0.00 72 1003.6
20260507143729 6 180 0.0 0.0 0.00 0.00 0.00 74 1003.4
20260507143327 6 180 0.0 0.0 0.00 0.00 0.00 69 1003.4
20260507143127 6 180 0.0 0.0 0.00 0.00 0.00 69 1003.4
20260507142924 6 180 0.0 0.0 0.00 0.00 0.00 69 1003.6
20260507142723 7 180 0.0 0.0 0.00 0.00 0.00 67 1003.6
20260507142522 7 180 0.0 0.0 0.00 0.00 0.00 68 1003.6
20260507142124 6 180 0.0 0.0 0.00 0.00 0.00 69 1003.4
20260507141716 6 180 0.0 0.0 0.00 0.00 0.00 65 1003.6
20260507141314 5 180 0.0 0.0 0.00 0.00 0.00 64 1003.7
20260507140912 5 180 0.0 0.0 0.00 0.00 0.00 61 1003.6
20260507140312 5 180 0.0 0.0 0.00 0.00 0.00 62 1003.7
20260507135706 6 180 0.0 0.0 0.00 0.00 0.00 56 1003.7
20260507135504 6 180 0.0 0.0 0.00 0.00 0.00 56 1003.7
20260507135120 7 180 0.0 0.0 0.00 0.00 0.00 60 1003.7
20260507134858 7 180 0.0 0.0 0.00 0.00 0.00 61 1003.7
20260507134456 7 180 0.0 0.0 0.00 0.00 0.00 61 1003.8
20260507134256 6 180 0.0 0.0 0.00 0.00 0.00 63 1003.8
20260507133651 6 180 0.0 0.0 0.00 0.00 0.00 64 1003.8
20260507133452 5 180 0.0 0.0 0.00 0.00 0.00 64 1004.0
20260507133248 5 180 0.0 0.0 0.00 0.00 0.00 64 1004.0
20260507133049 5 180 0.0 0.0 0.00 0.00 0.00 60 1004.0
20260507132854 5 180 0.0 0.0 0.00 0.00 0.00 64 1004.0
20260507132646 5 180 0.0 0.0 0.00 0.00 0.00 63 1004.0
20260507132244 5 180 0.0 0.0 0.00 0.00 0.00 65 1003.8
20260507132042 5 180 0.0 0.0 0.00 0.00 0.00 65 1004.0
20260507131851 5 180 0.0 0.0 0.00 0.00 0.00 63 1004.0
20260507131639 5 180 0.0 0.0 0.00 0.00 0.00 64 1004.0
20260507131244 5 180 0.0 0.0 0.00 0.00 0.00 65 1004.0
20260507130834 5 180 0.0 0.0 0.00 0.00 0.00 62 1004.0
20260507130436 5 180 0.0 0.0 0.00 0.00 0.00 63 1004.1
20260507130028 5 180 0.0 0.0 0.00 0.00 0.00 65 1004.1
20260507125426 5 180 0.0 0.0 0.00 0.00 0.00 64 1004.0
20260507125024 5 180 0.0 0.0 0.00 0.00 0.00 65 1004.0
20260507124823 5 180 0.0 0.0 0.00 0.00 0.00 64 1004.0
20260507124621 5 180 0.0 0.0 0.00 0.00 0.00 67 1004.0
20260507124420 5 180 0.0 0.0 0.00 0.00 0.00 67 1004.0
20260507124357 5 180 0.0 0.0 0.00 0.00 0.00 65 1004.0
20260507124219 5 180 0.0 0.0 0.00 0.00 0.00 65 1004.0
20260507123816 5 180 0.0 0.0 0.00 0.00 0.00 66 1004.0
20260507123614 5 180 0.0 0.0 0.00 0.00 0.00 66 1004.0
20260507123413 5 180 0.0 0.0 0.00 0.00 0.00 66 1004.0
20260507123212 5 180 0.0 0.0 0.00 0.00 0.00 67 1004.0
20260507123013 5 180 0.0 0.0 0.00 0.00 0.00 68 1004.0
20260507122809 5 180 0.0 0.0 0.00 0.00 0.00 69 1004.1
20260507122611 5 180 0.0 0.0 0.00 0.00 0.00 68 1004.1
20260507122209 5 180 0.0 0.0 0.00 0.00 0.00 72 1004.0
20260507121838 5 180 0.0 0.0 0.00 0.00 0.00 72 1004.0
20260507121806 5 180 0.0 0.0 0.00 0.00 0.00 72 1004.0
20260507121603 5 180 0.0 0.0 0.00 0.00 0.00 71 1004.0
20260507121406 5 180 0.0 0.0 0.00 0.00 0.00 71 1004.0
20260507121205 5 180 0.0 0.0 0.00 0.00 0.00 71 1004.1
20260507120958 5 180 0.0 0.0 0.00 0.00 0.00 71 1004.0
20260507120757 5 180 0.0 0.0 0.00 0.00 0.00 69 1004.0
20260507120658 5 180 0.0 0.0 0.00 0.00 0.00 72 1004.0
20260507120559 5 180 0.0 0.0 0.00 0.00 0.00 72 1004.0
20260507120354 5 180 0.0 0.0 0.00 0.00 0.00 72 1004.1
20260507120232 5 180 0.0 0.0 0.00 0.00 0.00 72 1004.0
20260507120153 5 180 0.0 0.0 0.00 0.00 0.00 72 1004.0
20260507115950 5 180 0.0 0.0 0.00 0.00 0.00 72 1004.1
20260507115756 5 180 0.0 0.0 0.00 0.00 0.00 71 1004.1
20260507115354 5 180 0.0 0.0 0.00 0.00 0.00 72 1004.1
20260507115155 5 180 0.0 0.0 0.00 0.00 0.00 72 1004.1
20260507114947 5 180 0.0 0.0 0.00 0.00 0.00 73 1004.1
20260507114746 5 180 0.0 0.0 0.00 0.00 0.00 72 1004.2
20260507114558 5 180 0.0 0.0 0.00 0.00 0.00 73 1004.1
20260507114142 5 180 0.0 0.0 0.00 0.00 0.00 72 1004.2
20260507113940 5 180 0.0 0.0 0.00 0.00 0.00 72 1004.2
20260507113738 5 180 0.0 0.0 0.00 0.00 0.00 72 1004.2
20260507113335 4 180 0.0 0.0 0.00 0.00 0.00 72 1004.2
20260507113143 4 180 0.0 0.0 0.00 0.00 0.00 73 1004.2
20260507112953 4 180 0.0 0.0 0.00 0.00 0.00 72 1004.2
20260507112731 5 180 0.0 0.0 0.00 0.00 0.00 74 1004.3
20260507112530 4 180 0.0 0.0 0.00 0.00 0.00 72 1004.2
20260507112329 5 180 0.0 0.0 0.00 0.00 0.00 76 1004.2
20260507112136 5 180 0.0 0.0 0.00 0.00 0.00 74 1004.2
20260507111927 5 180 0.0 0.0 0.00 0.00 0.00 75 1004.2
20260507111729 4 180 0.0 0.0 0.00 0.00 0.00 75 1004.2
20260507111528 5 180 0.0 0.0 0.00 0.00 0.00 75 1004.2
20260507111323 4 180 0.0 0.0 0.00 0.00 0.00 73 1004.2
20260507110921 5 180 0.0 0.0 0.00 0.00 0.00 77 1004.3
20260507110753 5 180 0.0 0.0 0.00 0.00 0.00 77 1004.3
20260507110719 5 180 0.0 0.0 0.00 0.00 0.00 77 1004.3
20260507110518 5 180 0.0 0.0 0.00 0.00 0.00 76 1004.3
20260507110316 5 180 0.0 0.0 0.00 0.00 0.00 80 1004.3
20260507105714 5 180 0.0 0.0 0.00 0.00 0.00 81 1004.3
20260507105513 5 180 0.0 0.0 0.00 0.00 0.00 82 1004.3
20260507105310 4 180 0.0 0.0 0.00 0.00 0.00 79 1004.3
20260507105119 4 180 0.0 0.0 0.00 0.00 0.00 80 1004.3
20260507104906 4 180 0.0 0.0 0.00 0.00 0.00 80 1004.3
20260507104707 4 180 0.0 0.0 0.00 0.00 0.00 79 1004.3
20260507104506 4 180 0.0 0.0 0.00 0.00 0.00 78 1004.2
20260507104304 3 180 0.0 0.0 0.00 0.00 0.00 77 1004.3
20260507103903 3 180 0.0 0.0 0.00 0.00 0.00 77 1004.2
20260507103738 4 180 0.0 0.0 0.00 0.00 0.00 76 1004.2
20260507103702 4 180 0.0 0.0 0.00 0.00 0.00 76 1004.2
20260507103258 4 180 0.0 0.0 0.00 0.00 0.00 76 1004.2
20260507103055 4 180 0.0 0.0 0.00 0.00 0.00 75 1004.2
20260507102908 4 180 0.0 0.0 0.00 0.00 0.00 74 1004.2
20260507102653 4 180 0.0 0.0 0.00 0.00 0.00 74 1004.2
20260507102453 4 180 0.0 0.0 0.00 0.00 0.00 73 1004.2
20260507101849 4 180 0.0 0.0 0.00 0.00 0.00 72 1004.2
20260507101648 5 180 0.0 0.0 0.00 0.00 0.00 73 1004.2
20260507101445 5 180 0.0 0.0 0.00 0.00 0.00 75 1004.3
20260507101246 5 180 0.0 0.0 0.00 0.00 0.00 71 1004.2
20260507100641 4 180 0.0 0.0 0.00 0.00 0.00 75 1004.2
20260507100441 4 180 0.0 0.0 0.00 0.00 0.00 72 1004.2
20260507100238 4 180 0.0 0.0 0.00 0.00 0.00 72 1004.2
20260507100050 4 180 0.0 0.0 0.00 0.00 0.00 73 1004.2
20260507095639 3 180 0.0 0.0 0.00 0.00 0.00 78 1004.2
20260507095439 3 180 0.0 0.0 0.00 0.00 0.00 78 1004.2
20260507095033 3 180 0.0 0.0 0.00 0.00 0.00 73 1004.2
20260507094834 3 180 0.0 0.0 0.00 0.00 0.00 75 1004.2
20260507094632 3 180 0.0 0.0 0.00 0.00 0.00 73 1004.2
20260507094223 3 180 0.0 0.0 0.00 0.00 0.00 78 1004.2
20260507094028 3 180 0.0 0.0 0.00 0.00 0.00 76 1004.2
20260507093821 3 180 0.0 0.0 0.00 0.00 0.00 74 1004.2
20260507093621 3 180 0.0 0.0 0.00 0.00 0.00 75 1004.2
20260507093418 3 180 0.0 0.0 0.00 0.00 0.00 74 1004.2
20260507093303 3 180 0.0 0.0 0.00 0.00 0.00 70 1004.1
20260507093218 3 180 0.0 0.0 0.00 0.00 0.00 70 1004.1
20260507092816 3 180 0.0 0.0 0.00 0.00 0.00 71 1004.1
20260507092613 3 180 0.0 0.0 0.00 0.00 0.00 74 1004.1
20260507092413 3 180 0.0 0.0 0.00 0.00 0.00 74 1004.1
20260507092211 3 180 0.0 0.0 0.00 0.00 0.00 73 1004.1
20260507092011 3 180 0.0 0.0 0.00 0.00 0.00 77 1004.1
20260507091809 3 180 0.0 0.0 0.00 0.00 0.00 78 1004.0
20260507091608 3 180 0.0 0.0 0.00 0.00 0.00 77 1004.1
20260507091206 3 180 0.0 0.0 0.00 0.00 0.00 72 1004.0
20260507091013 3 180 0.0 0.0 0.00 0.00 0.00 71 1004.0
20260507090803 3 180 0.0 0.0 0.00 0.00 0.00 69 1004.0
20260507090642 3 180 0.0 0.0 0.00 0.00 0.00 73 1004.0
20260507090601 3 180 0.0 0.0 0.00 0.00 0.00 73 1004.0
20260507090401 3 180 0.0 0.0 0.00 0.00 0.00 74 1003.8
20260507090159 3 180 0.0 0.0 0.00 0.00 0.00 74 1003.8
20260507085958 3 180 0.0 0.0 0.00 0.00 0.00 71 1003.8
20260507085756 3 180 0.0 0.0 0.00 0.00 0.00 70 1003.8
20260507085556 2 180 0.0 0.0 0.00 0.00 0.00 69 1003.8
20260507085353 2 180 0.0 0.0 0.00 0.00 0.00 68 1003.8
20260507085153 2 180 0.0 0.0 0.00 0.00 0.00 69 1003.8
20260507084952 2 180 0.0 0.0 0.00 0.00 0.00 72 1003.8
20260507084751 2 180 0.0 0.0 0.00 0.00 0.00 72 1003.8
20260507084600 2 180 0.0 0.0 0.00 0.00 0.00 74 1003.8
20260507084348 2 180 0.0 0.0 0.00 0.00 0.00 75 1003.8
20260507083744 2 180 0.0 0.0 0.00 0.00 0.00 78 1003.8
20260507083341 2 180 0.0 0.0 0.00 0.00 0.00 77 1003.8
20260507083141 2 180 0.0 0.0 0.00 0.00 0.00 76 1003.7
20260507082741 2 180 0.0 0.0 0.00 0.00 0.00 77 1003.8
20260507082335 1 180 0.0 0.0 0.00 0.00 0.00 81 1003.8
20260507082142 1 180 0.0 0.0 0.00 0.00 0.00 80 1003.8
20260507081933 1 180 0.0 0.0 0.00 0.00 0.00 79 1003.8
20260507081730 1 180 0.0 0.0 0.00 0.00 0.00 80 1003.7
20260507081532 1 180 0.0 0.0 0.00 0.00 0.00 79 1003.7
20260507081329 1 180 0.0 0.0 0.00 0.00 0.00 80 1003.8
20260507081128 1 180 0.0 0.0 0.00 0.00 0.00 77 1003.8
20260507080925 1 180 0.0 0.0 0.00 0.00 0.00 77 1003.7
20260507080727 1 180 0.0 0.0 0.00 0.00 0.00 79 1003.7
20260507080523 1 180 0.0 0.0 0.00 0.00 0.00 77 1003.8
20260507080323 1 180 0.0 0.0 0.00 0.00 0.00 78 1003.8
20260507080129 1 180 0.0 0.0 0.00 0.00 0.00 79 1003.8
20260507075920 1 180 0.0 0.0 0.00 0.00 0.00 80 1003.8
20260507075718 1 180 0.0 0.0 0.00 0.00 0.00 80 1003.7
20260507075518 1 180 0.0 0.0 0.00 0.00 0.00 80 1003.8
20260507075317 1 180 0.0 0.0 0.00 0.00 0.00 82 1003.8
20260507075117 1 180 0.0 0.0 0.00 0.00 0.00 81 1003.7
20260507074913 1 180 0.0 0.0 0.00 0.00 0.00 82 1003.8
20260507074720 1 180 0.0 0.0 0.00 0.00 0.00 82 1003.7
20260507074510 1 180 0.0 0.0 0.00 0.00 0.00 82 1003.8
20260507074310 0 180 0.0 0.0 0.00 0.00 0.00 83 1003.8
20260507074113 0 180 0.0 0.0 0.00 0.00 0.00 85 1003.7
20260507073912 0 180 0.0 0.0 0.00 0.00 0.00 84 1003.7
20260507073705 0 180 0.0 0.0 0.00 0.00 0.00 85 1003.7
20260507073303 0 180 0.0 0.0 0.00 0.00 0.00 86 1003.6
20260507072900 0 180 0.0 0.0 0.00 0.00 0.00 86 1003.6
20260507072709 0 180 0.0 0.0 0.00 0.00 0.00 87 1003.6
20260507072056 0 180 0.0 0.0 0.00 0.00 0.00 87 1003.4
20260507071855 0 180 0.0 0.0 0.00 0.00 0.00 86 1003.4
20260507071737 0 180 0.0 0.0 0.00 0.00 0.00 87 1003.4
20260507071653 0 180 0.0 0.0 0.00 0.00 0.00 87 1003.4
20260507071453 0 180 0.0 0.0 0.00 0.00 0.00 86 1003.4
20260507071251 0 180 0.0 0.0 0.00 0.00 0.00 83 1003.4
20260507070648 1 180 0.0 0.0 0.00 0.00 0.00 78 1003.3
20260507070248 1 180 0.0 0.0 0.00 0.00 0.00 79 1003.3
20260507070045 1 180 0.0 0.0 0.00 0.00 0.00 79 1003.3
20260507065844 1 180 0.0 0.0 0.00 0.00 0.00 80 1003.3
20260507065642 0 180 0.0 0.0 0.00 0.00 0.00 79 1003.3
20260507065445 0 180 0.0 0.0 0.00 0.00 0.00 82 1003.3
20260507065238 0 180 0.0 0.0 0.00 0.00 0.00 84 1003.3
20260507065044 0 180 0.0 0.0 0.00 0.00 0.00 86 1003.3
20260507064842 0 180 0.0 0.0 0.00 0.00 0.00 84 1003.3
20260507064635 0 180 0.0 0.0 0.00 0.00 0.00 85 1003.3
20260507064437 0 180 0.0 0.0 0.00 0.00 0.00 86 1003.3
20260507064234 0 180 0.0 0.0 0.00 0.00 0.00 87 1003.3
20260507063832 0 180 0.0 0.0 0.00 0.00 0.00 83 1003.4
20260507063629 0 180 0.0 0.0 0.00 0.00 0.00 83 1003.3
20260507063431 0 180 0.0 0.0 0.00 0.00 0.00 83 1003.3
20260507063227 0 180 0.0 0.0 0.00 0.00 0.00 84 1003.3
20260507062825 0 180 0.0 0.0 0.00 0.00 0.00 83 1003.2
20260507062623 1 180 0.0 0.0 0.00 0.00 0.00 81 1003.3
20260507062426 0 180 0.0 0.0 0.00 0.00 0.00 81 1003.2
20260507062018 0 180 0.0 0.0 0.00 0.00 0.00 83 1003.2
20260507061818 1 180 0.0 0.0 0.00 0.00 0.00 81 1003.2
20260507061615 0 180 0.0 0.0 0.00 0.00 0.00 81 1003.2
20260507061415 0 180 0.0 0.0 0.00 0.00 0.00 83 1003.1
20260507061213 1 180 0.0 0.0 0.00 0.00 0.00 81 1003.2
20260507061202 1 180 0.0 0.0 0.00 0.00 0.00 81 1003.1
20260507061013 1 180 0.0 0.0 0.00 0.00 0.00 81 1003.1
20260507060810 1 180 0.0 0.0 0.00 0.00 0.00 81 1003.1
20260507060408 0 180 0.0 0.0 0.00 0.00 0.00 82 1003.2
20260507060006 1 180 0.0 0.0 0.00 0.00 0.00 81 1003.2
20260507055805 1 180 0.0 0.0 0.00 0.00 0.00 81 1003.1
20260507055403 1 180 0.0 0.0 0.00 0.00 0.00 82 1003.1
20260507055200 0 180 0.0 0.0 0.00 0.00 0.00 82 1003.1
20260507055001 0 180 0.0 0.0 0.00 0.00 0.00 82 1003.1
20260507054800 0 180 0.0 0.0 0.00 0.00 0.00 82 1003.1
20260507054559 0 180 0.0 0.0 0.00 0.00 0.00 82 1003.1
20260507054155 1 180 0.0 0.0 0.00 0.00 0.00 82 1003.1
20260507054044 0 180 0.0 0.0 0.00 0.00 0.00 82 1003.1
20260507053956 1 180 0.0 0.0 0.00 0.00 0.00 82 1003.1
20260507053757 0 180 0.0 0.0 0.00 0.00 0.00 82 1003.1
20260507053728 0 180 0.0 0.0 0.00 0.00 0.00 83 1003.1
20260507053550 0 180 0.0 0.0 0.00 0.00 0.00 83 1003.1
20260507053546 0 180 0.0 0.0 0.00 0.00 0.00 83 1002.9
20260507053350 0 180 0.0 0.0 0.00 0.00 0.00 83 1002.9
20260507053147 0 180 0.0 0.0 0.00 0.00 0.00 83 1002.9
20260507052947 0 180 0.0 0.0 0.00 0.00 0.00 83 1003.1
20260507052745 0 180 0.0 0.0 0.00 0.00 0.00 82 1002.9
20260507052551 1 180 0.0 0.0 0.00 0.00 0.00 82 1002.9
20260507052343 1 180 0.0 0.0 0.00 0.00 0.00 82 1002.8
20260507052142 1 180 0.0 0.0 0.00 0.00 0.00 81 1002.9
20260507052016 0 180 0.0 0.0 0.00 0.00 0.00 82 1002.9
20260507051940 0 180 0.0 0.0 0.00 0.00 0.00 82 1002.9
20260507051740 1 180 0.0 0.0 0.00 0.00 0.00 82 1002.9
20260507051337 0 180 0.0 0.0 0.00 0.00 0.00 82 1002.9
20260507051135 0 180 0.0 0.0 0.00 0.00 0.00 82 1002.9
20260507050733 1 180 0.0 0.0 0.00 0.00 0.00 82 1002.9
20260507050642 1 180 0.0 0.0 0.00 0.00 0.00 82 1002.8
20260507050537 1 180 0.0 0.0 0.00 0.00 0.00 82 1002.8
20260507050330 1 180 0.0 0.0 0.00 0.00 0.00 82 1002.8
20260507050227 1 180 0.0 0.0 0.00 0.00 0.00 82 1002.7
20260507050130 1 180 0.0 0.0 0.00 0.00 0.00 82 1002.7
20260507045927 1 180 0.0 0.0 0.00 0.00 0.00 82 1002.7
20260507045837 1 180 0.0 0.0 0.00 0.00 0.00 82 1002.7
20260507045727 1 180 0.0 0.0 0.00 0.00 0.00 82 1002.7
20260507045438 1 180 0.0 0.0 0.00 0.00 0.00 82 1002.8
20260507045325 1 180 0.0 0.0 0.00 0.00 0.00 82 1002.8
20260507045124 1 180 0.0 0.0 0.00 0.00 0.00 83 1002.8
20260507044922 1 180 0.0 0.0 0.00 0.00 0.00 83 1002.7
20260507044317 1 180 0.0 0.0 0.00 0.00 0.00 83 1002.7
20260507044159 1 180 0.0 0.0 0.00 0.00 0.00 84 1002.7
20260507044121 1 180 0.0 0.0 0.00 0.00 0.00 84 1002.7
20260507043715 1 180 0.0 0.0 0.00 0.00 0.00 84 1002.7
20260507043512 1 180 0.0 0.0 0.00 0.00 0.00 84 1002.7
20260507043312 0 180 0.0 0.0 0.00 0.00 0.00 84 1002.7
20260507043112 0 180 0.0 0.0 0.00 0.00 0.00 84 1002.7
20260507042910 0 180 0.0 0.0 0.00 0.00 0.00 85 1002.7
20260507042707 0 180 0.0 0.0 0.00 0.00 0.00 85 1002.7
20260507042507 0 180 0.0 0.0 0.00 0.00 0.00 85 1002.7
20260507042307 0 180 0.0 0.0 0.00 0.00 0.00 85 1002.7
20260507042106 0 180 0.0 0.0 0.00 0.00 0.00 85 1002.6
20260507041902 0 180 0.0 0.0 0.00 0.00 0.00 86 1002.6
20260507041703 1 180 0.0 0.0 0.00 0.00 0.00 85 1002.6
20260507041500 1 180 0.0 0.0 0.00 0.00 0.00 85 1002.7
20260507041300 1 180 0.0 0.0 0.00 0.00 0.00 85 1002.6
20260507041057 1 180 0.0 0.0 0.00 0.00 0.00 85 1002.7
20260507040857 1 180 0.0 0.0 0.00 0.00 0.00 83 1002.7
20260507040455 1 180 0.0 0.0 0.00 0.00 0.00 84 1002.7
20260507040259 1 180 0.0 0.0 0.00 0.00 0.00 85 1002.7
20260507040056 1 180 0.0 0.0 0.00 0.00 0.00 85 1002.7
20260507035849 1 180 0.0 0.0 0.00 0.00 0.00 85 1002.7
20260507035651 1 180 0.0 0.0 0.00 0.00 0.00 85 1002.7
20260507035447 1 180 0.0 0.0 0.00 0.00 0.00 85 1002.6
20260507035247 1 180 0.0 0.0 0.00 0.00 0.00 85 1002.7
20260507035044 1 180 0.0 0.0 0.00 0.00 0.00 85 1002.7
20260507034845 1 180 0.0 0.0 0.00 0.00 0.00 85 1002.6
20260507034642 1 180 0.0 0.0 0.00 0.00 0.00 85 1002.7
20260507034442 1 180 0.0 0.0 0.00 0.00 0.00 86 1002.6
20260507034245 1 180 0.0 0.0 0.00 0.00 0.00 86 1002.6
20260507034039 1 180 0.0 0.0 0.00 0.00 0.00 87 1002.6
20260507033914 1 180 0.0 0.0 0.00 0.00 0.00 88 1002.6
20260507033837 1 180 0.0 0.0 0.00 0.00 0.00 88 1002.6
20260507033716 1 180 0.0 0.0 0.00 0.00 0.00 88 1002.7
20260507033644 1 180 0.0 0.0 0.00 0.00 0.00 88 1002.7
20260507033434 1 180 0.0 0.0 0.00 0.00 0.00 87 1002.7
20260507033240 1 180 0.0 0.0 0.00 0.00 0.00 88 1002.8
20260507033032 1 180 0.0 0.0 0.00 0.00 0.00 87 1002.7
20260507032834 1 180 0.0 0.0 0.00 0.00 0.00 87 1002.8
20260507032630 1 180 0.0 0.0 0.00 0.00 0.00 87 1002.8
20260507032431 1 180 0.0 0.0 0.00 0.00 0.00 87 1002.8
20260507032227 1 180 0.0 0.0 0.00 0.00 0.00 87 1002.8
20260507032035 1 180 0.0 0.0 0.00 0.00 0.00 87 1002.8
20260507032025 1 180 0.0 0.0 0.00 0.00 0.00 87 1002.8
20260507031827 1 180 0.0 0.0 0.00 0.00 0.00 87 1002.8
20260507031636 1 180 0.0 0.0 0.00 0.00 0.00 87 1002.7
20260507031422 1 180 0.0 0.0 0.00 0.00 0.00 86 1002.7
20260507030820 1 180 0.0 0.0 0.00 0.00 0.00 86 1002.8
20260507030654 1 180 0.0 0.0 0.00 0.00 0.00 87 1002.8
20260507030617 1 180 0.0 0.0 0.00 0.00 0.00 87 1002.8
20260507030418 1 180 0.0 0.0 0.00 0.00 0.00 87 1002.8
20260507030214 1 180 0.0 0.0 0.00 0.00 0.00 87 1002.8
20260507025812 1 180 0.0 0.0 0.00 0.00 0.00 88 1002.9
20260507025651 1 180 0.0 0.0 0.00 0.00 0.00 88 1002.9
20260507025612 1 180 0.0 0.0 0.00 0.00 0.00 88 1002.9
20260507025410 1 180 0.0 0.0 0.00 0.00 0.00 88 1002.8
20260507025210 1 180 0.0 0.0 0.00 0.00 0.00 90 1002.9
20260507025007 1 180 0.0 0.0 0.00 0.00 0.00 90 1002.9
20260507024839 1 180 0.0 0.0 0.00 0.00 0.00 90 1002.9
20260507024807 1 180 0.0 0.0 0.00 0.00 0.00 90 1002.9
20260507024604 1 180 0.0 0.0 0.00 0.00 0.00 90 1002.9
20260507024405 1 180 0.0 0.0 0.00 0.00 0.00 90 1002.9
20260507024202 1 180 0.0 0.0 0.00 0.00 0.00 90 1002.8
20260507024002 1 180 0.0 0.0 0.00 0.00 0.00 90 1002.9
20260507023806 1 180 0.0 0.0 0.00 0.00 0.00 90 1002.8
20260507023600 1 180 0.0 0.0 0.00 0.00 0.00 90 1002.8
20260507023357 1 180 0.0 0.0 0.00 0.00 0.00 89 1002.8
20260507023157 1 180 0.0 0.0 0.00 0.00 0.00 89 1002.8
20260507022955 1 180 0.0 0.0 0.00 0.00 0.00 89 1002.8
20260507022755 1 180 0.0 0.0 0.00 0.00 0.00 88 1002.8
20260507022552 1 180 0.0 0.0 0.00 0.00 0.00 88 1002.7
20260507022427 1 180 0.0 0.0 0.00 0.00 0.00 88 1002.7
20260507022354 1 180 0.0 0.0 0.00 0.00 0.00 88 1002.7
20260507022150 1 180 0.0 0.0 0.00 0.00 0.00 88 1002.7
20260507021951 1 180 0.0 0.0 0.00 0.00 0.00 89 1002.7
20260507021748 1 180 0.0 0.0 0.00 0.00 0.00 89 1002.7
20260507021548 1 180 0.0 0.0 0.00 0.00 0.00 88 1002.6
20260507021422 1 180 0.0 0.0 0.00 0.00 0.00 89 1002.6
20260507021346 1 180 0.0 0.0 0.00 0.00 0.00 89 1002.6
20260507021146 1 180 0.0 0.0 0.00 0.00 0.00 89 1002.7
20260507020943 1 180 0.0 0.0 0.00 0.00 0.00 89 1002.7
20260507020744 0 180 0.0 0.0 0.00 0.00 0.00 90 1002.8
20260507020541 0 180 0.0 0.0 0.00 0.00 0.00 90 1002.8
20260507020340 1 180 0.0 0.0 0.00 0.00 0.00 89 1002.7
20260507020138 0 180 0.0 0.0 0.00 0.00 0.00 89 1002.7
20260507015735 0 180 0.0 0.0 0.00 0.00 0.00 90 1002.8
20260507015535 0 180 0.0 0.0 0.00 0.00 0.00 91 1002.8
20260507015333 0 180 0.0 0.0 0.00 0.00 0.00 90 1002.8
20260507015133 0 180 0.0 0.0 0.00 0.00 0.00 91 1002.8
20260507014934 0 180 0.0 0.0 0.00 0.00 0.00 91 1002.8
20260507014732 1 180 0.0 0.0 0.00 0.00 0.00 89 1002.9
20260507014533 0 180 0.0 0.0 0.00 0.00 0.00 90 1002.9
20260507014328 1 180 0.0 0.0 0.00 0.00 0.00 89 1002.8
20260507014125 0 180 0.0 0.0 0.00 0.00 0.00 90 1002.8
20260507013928 0 180 0.0 0.0 0.00 0.00 0.00 91 1002.8
20260507013724 1 180 0.0 0.0 0.00 0.00 0.00 89 1002.8
20260507013524 1 180 0.0 0.0 0.00 0.00 0.00 89 1002.8
20260507013322 0 180 0.0 0.0 0.00 0.00 0.00 91 1002.8
20260507013126 0 180 0.0 0.0 0.00 0.00 0.00 93 1002.8
20260507012924 0 180 0.0 0.0 0.00 0.00 0.00 94 1002.8
20260507012719 0 180 0.0 0.0 0.00 0.00 0.00 93 1002.8
20260507012318 0 180 0.0 0.0 0.00 0.00 0.00 91 1002.8
20260507012116 1 180 0.0 0.0 0.00 0.00 0.00 91 1002.8
20260507011920 1 180 0.0 0.0 0.00 0.00 0.00 89 1002.9
20260507011712 1 180 0.0 0.0 0.00 0.00 0.00 89 1002.8
20260507011310 1 180 0.0 0.0 0.00 0.00 0.00 89 1002.8
20260507011112 1 180 0.0 0.0 0.00 0.00 0.00 88 1002.8
20260507010922 1 180 0.0 0.0 0.00 0.00 0.00 89 1002.9
20260507010707 1 180 0.0 0.0 0.00 0.00 0.00 89 1002.8
20260507010505 1 180 0.0 0.0 0.00 0.00 0.00 89 1002.8
20260507010305 1 180 0.0 0.0 0.00 0.00 0.00 89 1002.8
20260507010120 1 180 0.0 0.0 0.00 0.00 0.00 89 1002.9
20260507005903 1 180 0.0 0.0 0.00 0.00 0.00 90 1002.9
20260507005704 1 180 0.0 0.0 0.00 0.00 0.00 90 1002.9
20260507005501 1 180 0.0 0.0 0.00 0.00 0.00 88 1003.1
20260507005100 1 180 0.0 0.0 0.00 0.00 0.00 88 1003.1
20260507004930 1 180 0.0 0.0 0.00 0.00 0.00 89 1003.1
20260507004853 1 180 0.0 0.0 0.00 0.00 0.00 89 1003.1
20260507004451 1 180 0.0 0.0 0.00 0.00 0.00 89 1003.2
20260507004251 1 180 0.0 0.0 0.00 0.00 0.00 89 1003.1
20260507004048 1 180 0.0 0.0 0.00 0.00 0.00 89 1003.1
20260507003646 1 180 0.0 0.0 0.00 0.00 0.00 89 1003.1
20260507003452 1 180 0.0 0.0 0.00 0.00 0.00 89 1003.2
20260507003251 1 180 0.0 0.0 0.00 0.00 0.00 89 1003.2
20260507002841 1 180 0.0 0.0 0.00 0.00 0.00 89 1003.2
20260507002641 1 180 0.0 0.0 0.00 0.00 0.00 89 1003.2
20260507002442 1 180 0.0 0.0 0.00 0.00 0.00 90 1003.2
20260507002240 1 180 0.0 0.0 0.00 0.00 0.00 90 1003.2
20260507002041 1 180 0.0 0.0 0.00 0.00 0.00 91 1003.3
20260507001836 1 180 0.0 0.0 0.00 0.00 0.00 92 1003.2
20260507001633 1 180 0.0 0.0 0.00 0.00 0.00 92 1003.2
20260507001434 1 180 0.0 0.0 0.00 0.00 0.00 92 1003.2
20260507001233 1 180 0.0 0.0 0.00 0.00 0.00 92 1003.3
20260507001030 1 180 0.0 0.0 0.00 0.00 0.00 92 1003.3
20260507000920 1 180 0.0 0.0 0.00 0.00 0.00 92 1003.3
20260507000828 1 180 0.0 0.0 0.00 0.00 0.00 92 1003.3
20260507000628 1 180 0.0 0.0 0.00 0.00 0.00 91 1003.3
20260507000226 1 180 0.0 0.0 0.00 0.00 0.00 91 1003.3
20260507000023 1 180 0.0 0.0 0.00 0.00 0.00 91 1003.3
20260506235823 1 180 0.0 0.0 0.00 0.00 0.00 91 1003.3
20260506235653 1 180 0.0 0.0 0.00 0.00 0.00 91 1003.3
20260506235620 1 180 0.0 0.0 0.00 0.00 0.00 91 1003.3
20260506235420 1 180 0.0 0.0 0.00 0.00 0.00 92 1003.3
20260506235218 1 180 0.0 0.0 0.00 0.00 0.00 92 1003.4
20260506235020 1 180 0.0 0.0 0.00 0.00 0.00 93 1003.4
20260506234815 1 180 0.0 0.0 0.00 0.00 0.00 93 1003.4
20260506234615 1 180 0.0 0.0 0.00 0.00 0.00 94 1003.4
20260506234422 1 180 0.0 0.0 0.00 0.00 0.00 94 1003.3
20260506234253 1 180 0.0 0.0 0.00 0.00 0.00 95 1003.4
20260506234213 1 180 0.0 0.0 0.00 0.00 0.00 95 1003.4
20260506234019 1 180 0.0 0.0 0.00 0.00 0.00 95 1003.4
20260506233810 1 180 0.0 0.0 0.00 0.00 0.00 95 1003.4
20260506233641 1 180 0.0 0.0 0.00 0.00 0.00 95 1003.4
20260506233608 1 180 0.0 0.0 0.00 0.00 0.00 95 1003.4
20260506233414 0 180 0.0 0.0 0.00 0.00 0.00 95 1003.4
20260506233207 1 180 0.0 0.0 0.00 0.00 0.00 96 1003.4
20260506232803 1 180 0.0 0.0 0.00 0.00 0.00 96 1003.4
20260506232606 1 180 0.0 0.0 0.00 0.00 0.00 96 1003.4
20260506232402 1 180 0.0 0.0 0.00 0.00 0.00 97 1003.4
20260506232204 1 180 0.0 0.0 0.00 0.00 0.00 97 1003.4
20260506231958 0 180 0.0 0.0 0.00 0.00 0.00 97 1003.6
20260506231759 0 180 0.0 0.0 0.00 0.00 0.00 97 1003.4
20260506231558 0 180 0.0 0.0 0.00 0.00 0.00 97 1003.4
20260506231355 1 180 0.0 0.0 0.00 0.00 0.00 97 1003.6
20260506231153 0 180 0.0 0.0 0.00 0.00 0.00 98 1003.6
20260506230953 0 180 0.0 0.0 0.00 0.00 0.00 98 1003.6
20260506230753 0 180 0.0 0.0 0.00 0.00 0.00 99 1003.6
20260506230558 0 180 0.0 0.0 0.00 0.00 0.00 99 1003.6
20260506230237 0 180 0.0 0.0 0.00 0.00 0.00 99 1003.6
20260506230150 0 180 0.0 0.0 0.00 0.00 0.00 99 1003.6
20260506225946 0 180 0.0 0.0 0.00 0.00 0.00 98 1003.6
20260506225747 0 180 0.0 0.0 0.00 0.00 0.00 98 1003.6
20260506225554 0 180 0.0 0.0 0.00 0.00 0.00 98 1003.6
20260506225344 0 180 0.0 0.0 0.00 0.00 0.00 98 1003.7
20260506225142 0 180 0.0 0.0 0.00 0.00 0.00 99 1003.7
20260506224940 0 180 0.0 0.0 0.00 0.00 0.00 99 1003.7
20260506224738 0 180 0.0 0.0 0.00 0.00 0.00 98 1003.6
20260506224540 0 180 0.0 0.0 0.00 0.00 0.00 99 1003.7
20260506224337 0 180 0.0 0.0 0.00 0.00 0.00 99 1003.7
20260506224138 0 180 0.0 0.0 0.00 0.00 0.00 99 1003.6
20260506223934 0 180 0.0 0.0 0.00 0.00 0.00 99 1003.6
20260506223735 0 180 0.0 0.0 0.00 0.00 0.00 100 1003.6
20260506223532 0 180 0.0 0.0 0.00 0.00 0.00 100 1003.7
20260506223333 0 180 0.0 0.0 0.00 0.00 0.00 100 1003.7
20260506223138 0 180 0.0 0.0 0.00 0.00 0.00 100 1003.7
20260506222934 0 180 0.0 0.0 0.00 0.00 0.00 100 1003.6
20260506222727 0 180 0.0 0.0 0.00 0.00 0.00 100 1003.6
20260506222526 0 180 0.0 0.0 0.00 0.00 0.00 100 1003.6
20260506222326 0 180 0.0 0.0 0.00 0.00 0.00 100 1003.6
20260506222131 0 180 0.0 0.0 0.00 0.00 0.00 100 1003.6
20260506221922 0 180 0.0 0.0 0.00 0.00 0.00 99 1003.6
20260506221728 0 180 0.0 0.0 0.00 0.00 0.00 100 1003.6
20260506221320 0 180 0.0 0.0 0.00 0.00 0.00 100 1003.6
20260506221117 0 180 0.0 0.0 0.00 0.00 0.00 99 1003.6
20260506220919 0 180 0.0 0.0 0.00 0.00 0.00 99 1003.6
20260506220717 0 180 0.0 0.0 0.00 0.00 0.00 100 1003.7
20260506220517 0 180 0.0 0.0 0.00 0.00 0.00 100 1003.7
20260506220312 0 180 0.0 0.0 0.00 0.00 0.00 100 1003.7
20260506220112 0 180 0.0 0.0 0.00 0.00 0.00 100 1003.6
20260506215911 0 180 0.0 0.0 0.00 0.00 0.00 99 1003.6
20260506215708 0 180 0.0 0.0 0.00 0.00 0.00 100 1003.7
20260506215308 0 180 0.0 0.0 0.00 0.00 0.00 100 1003.7
20260506215113 0 180 0.0 0.0 0.00 0.00 0.00 100 1003.7
20260506214905 0 180 0.0 0.0 0.00 0.00 0.00 100 1003.7
20260506214703 0 180 0.0 0.0 0.00 0.00 0.00 100 1003.7
20260506214502 0 180 0.0 0.0 0.00 0.00 0.00 100 1003.7
20260506214301 0 180 0.0 0.0 0.00 0.00 0.00 100 1003.7
20260506213857 0 180 0.0 0.0 0.00 0.00 0.00 100 1003.7
20260506213658 0 180 0.0 0.0 0.00 0.00 0.00 100 1003.7
20260506213458 0 180 0.0 0.0 0.00 0.00 0.00 100 1003.7
20260506213256 0 180 0.0 0.0 0.00 0.00 0.00 100 1003.7
20260506213103 0 180 0.0 0.0 0.00 0.00 0.00 100 1003.7
20260506212852 0 180 0.0 0.0 0.00 0.00 0.00 100 1003.7
20260506212651 0 180 0.0 0.0 0.00 0.00 0.00 100 1003.7
20260506212046 0 180 0.0 0.0 0.00 0.00 0.00 100 1003.7
20260506211845 0 180 0.0 0.0 0.00 0.00 0.00 100 1003.7
20260506211645 0 180 0.0 0.0 0.00 0.00 0.00 100 1003.6
20260506211244 0 180 0.0 0.0 0.00 0.00 0.00 100 1003.6
20260506210909 0 180 0.0 0.0 0.00 0.00 0.00 100 1003.7
20260506210838 0 180 0.0 0.0 0.00 0.00 0.00 100 1003.7
20260506210636 0 180 0.0 0.0 0.00 0.00 0.00 100 1003.6
20260506210233 0 180 0.0 0.0 0.00 0.00 0.00 100 1003.6
20260506210034 0 180 0.0 0.0 0.00 0.00 0.00 100 1003.6
20260506205836 0 180 0.0 0.0 0.00 0.00 0.00 100 1003.6
20260506205631 0 180 0.0 0.0 0.00 0.00 0.00 100 1003.6
20260506205428 0 180 0.0 0.0 0.00 0.00 0.00 100 1003.6
20260506205231 0 180 0.0 0.0 0.00 0.00 0.00 100 1003.6
20260506204829 0 180 0.0 0.0 0.00 0.00 0.00 100 1003.6
20260506204629 0 180 0.0 0.0 0.00 0.00 0.00 100 1003.6
20260506204221 0 180 0.0 0.0 0.00 0.00 0.00 100 1003.6
20260506204021 0 180 0.0 0.0 0.00 0.00 0.00 100 1003.6
20260506203818 0 180 0.0 0.0 0.00 0.00 0.00 100 1003.6
20260506203620 0 180 0.0 0.0 0.00 0.00 0.00 100 1003.6
20260506203427 0 180 0.0 0.0 0.00 0.00 0.00 100 1003.4
20260506203216 0 180 0.0 0.0 0.00 0.00 0.00 100 1003.4
20260506202816 0 180 0.0 0.0 0.00 0.00 0.00 100 1003.4
20260506202610 0 180 0.0 0.0 0.00 0.00 0.00 100 1003.6
20260506202416 0 180 0.0 0.0 0.00 0.00 0.00 100 1003.4
20260506202331 0 180 0.0 0.0 0.00 0.00 0.00 100 1003.4
20260506202208 0 180 0.0 0.0 0.00 0.00 0.00 100 1003.4
20260506202015 0 180 0.0 0.0 0.00 0.00 0.00 100 1003.4
20260506201805 0 180 0.0 0.0 0.00 0.00 0.00 100 1003.4
20260506201609 0 180 0.0 0.0 0.00 0.00 0.00 100 1003.3
20260506201403 0 180 0.0 0.0 0.00 0.00 0.00 100 1003.4
20260506201205 0 180 0.0 0.0 0.00 0.00 0.00 100 1003.3
20260506201001 0 180 0.0 0.0 0.00 0.00 0.00 100 1003.3
20260506200800 0 180 0.0 0.0 0.00 0.00 0.00 100 1003.3
20260506200600 0 180 0.0 0.0 0.00 0.00 0.00 99 1003.4
20260506200358 0 180 0.0 0.0 0.00 0.00 0.00 100 1003.3
20260506200155 0 180 0.0 0.0 0.00 0.00 0.00 100 1003.3
20260506195752 0 180 0.0 0.0 0.00 0.00 0.00 100 1003.2
20260506195553 0 180 0.0 0.0 0.00 0.00 0.00 100 1003.1
20260506195352 0 180 0.0 0.0 0.00 0.00 0.00 100 1003.1
20260506195151 0 180 0.0 0.0 0.00 0.00 0.00 100 1003.1
20260506194955 0 180 0.0 0.0 0.00 0.00 0.00 100 1003.1
20260506194821 0 180 0.0 0.0 0.00 0.00 0.00 100 1003.2
20260506194748 0 180 0.0 0.0 0.00 0.00 0.00 100 1003.2
20260506194545 0 180 0.0 0.0 0.00 0.00 0.00 100 1003.2
20260506194352 0 180 0.0 0.0 0.00 0.00 0.00 100 1003.1
20260506194254 0 180 0.0 0.0 0.00 0.00 0.00 100 1003.1
20260506194147 0 180 0.0 0.0 0.00 0.00 0.00 100 1003.1
20260506193944 1 180 0.0 0.0 0.00 0.00 0.00 99 1003.1
20260506193740 1 180 0.0 0.0 0.00 0.00 0.00 99 1002.9
20260506193540 1 180 0.0 0.0 0.00 0.00 0.00 99 1003.1
20260506193337 1 180 0.0 0.0 0.00 0.00 0.00 99 1002.9
20260506193137 1 180 0.0 0.0 0.00 0.00 0.00 98 1002.9
20260506192935 1 180 0.0 0.0 0.00 0.00 0.00 97 1002.9
20260506192735 1 180 0.0 0.0 0.00 0.00 0.00 98 1002.8
20260506192532 1 180 0.0 0.0 0.00 0.00 0.00 98 1002.8
20260506192332 1 180 0.0 0.0 0.00 0.00 0.00 99 1002.8
20260506192139 1 180 0.0 0.0 0.00 0.00 0.00 99 1002.8
20260506191929 1 180 0.0 0.0 0.00 0.00 0.00 98 1002.7
20260506191731 1 180 0.0 0.0 0.00 0.00 0.00 98 1002.7
20260506191527 1 180 0.0 0.0 0.00 0.00 0.00 97 1002.7
20260506191324 1 180 0.0 0.0 0.00 0.00 0.00 97 1002.6
20260506190723 1 180 0.0 0.0 0.00 0.00 0.00 96 1002.4
20260506190521 1 180 0.0 0.0 0.00 0.00 0.00 96 1002.4
20260506190322 1 180 0.0 0.0 0.00 0.00 0.00 96 1002.4
20260506185716 1 180 0.0 0.0 0.00 0.00 0.00 98 1002.3
20260506185349 1 180 0.0 0.0 0.00 0.00 0.00 98 1002.4
20260506185312 1 180 0.0 0.0 0.00 0.00 0.00 98 1002.4
20260506185112 1 180 0.0 0.0 0.00 0.00 0.00 98 1002.4
20260506184912 1 180 0.0 0.0 0.00 0.00 0.00 98 1002.4
20260506184709 1 180 0.0 0.0 0.00 0.00 0.00 98 1002.4
20260506184508 1 180 0.0 0.0 0.00 0.00 0.00 99 1002.4
20260506184106 1 180 0.0 0.0 0.00 0.00 0.00 99 1002.4
20260506183904 1 180 0.0 0.0 0.00 0.00 0.00 99 1002.4
20260506183737 1 180 0.0 0.0 0.00 0.00 0.00 99 1002.4
20260506183702 1 180 0.0 0.0 0.00 0.00 0.00 99 1002.4
20260506183502 1 180 0.0 0.0 0.00 0.00 0.00 98 1002.4
20260506183259 1 180 0.0 0.0 0.00 0.00 0.00 98 1002.4
20260506182858 1 180 0.0 0.0 0.00 0.00 0.00 98 1002.6
20260506182822 1 180 0.0 0.0 0.00 0.00 0.00 98 1002.4
20260506182658 1 180 0.0 0.0 0.00 0.00 0.00 98 1002.4
20260506182456 1 180 0.0 0.0 0.00 0.00 0.00 97 1002.4
20260506182334 1 180 0.0 0.0 0.00 0.00 0.00 96 1002.4
20260506182254 1 180 0.0 0.0 0.00 0.00 0.00 96 1002.4
20260506182052 1 180 0.0 0.0 0.00 0.00 0.00 95 1002.4
20260506181852 1 180 0.0 0.0 0.00 0.00 0.00 95 1002.4
20260506181651 1 180 0.0 0.0 0.00 0.00 0.00 95 1002.3
20260506181331 1 180 0.0 0.0 0.00 0.00 0.00 95 1002.2
20260506181247 1 180 0.0 0.0 0.00 0.00 0.00 95 1002.2
20260506180844 1 180 0.0 0.0 0.00 0.00 0.00 96 1002.2
20260506180644 1 180 0.0 0.0 0.00 0.00 0.00 95 1002.2
20260506180242 1 180 0.0 0.0 0.00 0.00 0.00 96 1002.0
20260506175840 1 180 0.0 0.0 0.00 0.00 0.00 95 1002.0
20260506175636 1 180 0.0 0.0 0.00 0.00 0.00 96 1002.0
20260506175439 1 180 0.0 0.0 0.00 0.00 0.00 96 1002.0
20260506175036 1 180 0.0 0.0 0.00 0.00 0.00 96 1002.0
20260506174831 1 180 0.0 0.0 0.00 0.00 0.00 96 1001.9
20260506174631 1 180 0.0 0.0 0.00 0.00 0.00 96 1001.9
20260506174429 1 180 0.0 0.0 0.00 0.00 0.00 96 1001.9
20260506174229 1 180 0.0 0.0 0.00 0.00 0.00 96 1001.9
20260506174026 1 180 0.0 0.0 0.00 0.00 0.00 95 1001.9
20260506173826 1 180 0.0 0.0 0.00 0.00 0.00 96 1001.9
20260506173624 1 180 0.0 0.0 0.00 0.00 0.00 96 1001.8
20260506173221 1 180 0.0 0.0 0.00 0.00 0.00 95 1001.8
20260506173021 2 180 0.0 0.0 0.00 0.00 0.00 96 1001.8
20260506172819 2 180 0.0 0.0 0.00 0.00 0.00 95 1001.8
20260506172619 2 180 0.0 0.0 0.00 0.00 0.00 95 1001.7
20260506172416 2 180 0.0 0.0 0.00 0.00 0.00 96 1001.7
20260506172339 2 180 0.0 0.0 0.00 0.00 0.00 95 1001.7
20260506172218 2 180 0.0 0.0 0.00 0.00 0.00 95 1001.7
20260506172015 2 180 0.0 0.0 0.00 0.00 0.00 96 1001.8
20260506171814 2 180 0.0 0.0 0.00 0.00 0.00 95 1001.8
20260506171611 2 180 0.0 0.0 0.00 0.00 0.00 96 1001.7
20260506171417 2 180 0.0 0.0 0.00 0.00 0.00 96 1001.7
20260506171209 2 180 0.0 0.0 0.00 0.00 0.00 95 1001.7
20260506171009 2 180 0.0 0.0 0.00 0.00 0.00 95 1001.7
20260506170807 2 180 0.0 0.0 0.00 0.00 0.00 96 1001.8
20260506170701 2 180 0.0 0.0 0.00 0.00 0.00 95 1001.8
20260506170606 2 180 0.0 0.0 0.00 0.00 0.00 95 1001.8
20260506170404 2 180 0.0 0.0 0.00 0.00 0.00 96 1001.7
20260506170252 2 180 0.0 0.0 0.00 0.00 0.00 97 1001.7
20260506170204 2 180 0.0 0.0 0.00 0.00 0.00 97 1001.7
20260506170001 2 180 0.0 0.0 0.00 0.00 0.00 97 1001.7
20260506165801 2 180 0.0 0.0 0.00 0.00 0.00 97 1001.5
20260506165648 2 180 0.0 0.0 0.00 0.00 0.00 96 1001.7
20260506165559 2 180 0.0 0.0 0.00 0.00 0.00 96 1001.7
20260506165400 2 180 0.0 0.0 0.00 0.00 0.00 96 1001.7
20260506165001 2 180 0.0 0.0 0.00 0.00 0.00 96 1001.7
20260506164753 2 180 0.0 0.0 0.00 0.00 0.00 95 1001.8
20260506164357 2 180 0.0 0.0 0.00 0.00 0.00 96 1001.8
20260506163949 3 180 0.0 0.0 0.00 0.00 0.00 96 1001.5
20260506163752 3 180 0.0 0.0 0.00 0.00 0.00 96 1001.5
20260506163547 3 180 0.0 0.0 0.00 0.00 0.00 95 1001.5
20260506163347 2 180 0.0 0.0 0.00 0.00 0.00 95 1001.5
20260506163151 2 180 0.0 0.0 0.00 0.00 0.00 95 1001.7
20260506162819 2 180 0.0 0.0 0.00 0.00 0.00 94 1001.5
20260506162741 2 180 0.0 0.0 0.00 0.00 0.00 94 1001.5
20260506162338 2 180 0.0 0.0 0.00 0.00 0.00 92 1001.5
20260506161533 2 180 0.0 0.0 0.00 0.00 0.00 90 1001.7
20260506161334 2 180 0.0 0.0 0.00 0.00 0.00 91 1001.7
20260506161131 2 180 0.0 0.0 0.00 0.00 0.00 92 1001.7
20260506160931 2 180 0.0 0.0 0.00 0.00 0.00 94 1001.7
20260506160728 2 180 0.0 0.0 0.00 0.00 0.00 94 1001.7
20260506160529 2 180 0.0 0.0 0.00 0.00 0.00 93 1001.7
20260506160326 2 180 0.0 0.0 0.00 0.00 0.00 91 1001.7
20260506155923 3 180 0.0 0.0 0.00 0.00 0.00 85 1001.7
20260506155726 3 180 0.0 0.0 0.00 0.00 0.00 87 1001.7
20260506155321 2 180 0.0 0.0 0.00 0.00 0.00 87 1001.7
20260506155119 3 180 0.0 0.0 0.00 0.00 0.00 85 1001.7
20260506154716 3 180 0.0 0.0 0.00 0.00 0.00 84 1001.7
20260506154313 3 180 0.0 0.0 0.00 0.00 0.00 83 1001.5
20260506154159 3 180 0.0 0.0 0.00 0.00 0.00 82 1001.7
20260506154117 3 180 0.0 0.0 0.00 0.00 0.00 82 1001.7
20260506153916 3 180 0.0 0.0 0.00 0.00 0.00 82 1001.5
20260506153711 3 180 0.0 0.0 0.00 0.00 0.00 83 1001.5
20260506153508 3 180 0.0 0.0 0.00 0.00 0.00 83 1001.5
20260506153308 3 180 0.0 0.0 0.00 0.00 0.00 83 1001.5
20260506153111 3 180 0.0 0.0 0.00 0.00 0.00 83 1001.4
20260506152906 3 180 0.0 0.0 0.00 0.00 0.00 83 1001.5
20260506152706 3 180 0.0 0.0 0.00 0.00 0.00 83 1001.4
20260506152506 3 180 0.0 0.0 0.00 0.00 0.00 83 1001.4
20260506152339 3 180 0.0 0.0 0.00 0.00 0.00 84 1001.4
20260506152301 3 180 0.0 0.0 0.00 0.00 0.00 84 1001.4
20260506152101 3 180 0.0 0.0 0.00 0.00 0.00 83 1001.4
20260506151858 4 180 0.0 0.0 0.00 0.00 0.00 84 1001.4
20260506151700 4 180 0.0 0.0 0.00 0.00 0.00 83 1001.4
20260506151456 4 180 0.0 0.0 0.00 0.00 0.00 86 1001.4
20260506151256 4 180 0.0 0.0 0.00 0.00 0.00 86 1001.4
20260506150853 3 180 0.0 0.0 0.00 0.00 0.00 88 1001.4